Location: Colonia Mina de C?rbuni
(46.1667°N, 22.7167°E)
Time: 02:36:11
(UTC+00:00)

Vanguard 1 - All Passes

Search period start: 22 April 2024 00:00
Search period end: 02 May 2024 00:00
Orbit: 653 x 3825 km, 34.2° (Epoch: 21 April)

Date Brightness Start Highest point End Pass type
(mag) Time Alt. Az. Time Alt. Az. Time Alt. Az.
22 Apr - 01:04:41 10° SSW 01:24:02 36° SSE 01:38:25 10° E visible
22 Apr - 03:27:42 10° WSW 03:47:35 51° S 03:59:39 10° ESE daylight
22 Apr - 05:54:05 10° W 06:09:48 45° SSW 06:18:42 10° SE daylight
22 Apr - 08:21:33 10° W 08:29:20 20° SW 08:34:48 10° S daylight
22 Apr - 23:06:37 10° S 23:21:00 21° SE 23:33:53 10° E visible
23 Apr - 01:23:53 10° SW 01:44:16 42° SSE 01:58:59 10° E visible
23 Apr - 03:48:00 10° WSW 04:07:53 53° S 04:19:45 10° ESE daylight
23 Apr - 06:14:48 10° W 06:29:46 41° SSW 06:38:25 10° SE daylight
23 Apr - 08:43:21 10° WSW 08:48:47 15° SW 08:53:01 10° SSW daylight
23 Apr - 23:24:01 10° S 23:40:55 26° SE 23:55:43 10° E visible
24 Apr - 01:43:27 10° SW 02:04:33 47° SSE 02:19:23 10° E visible
24 Apr - 04:08:27 10° WSW 04:28:09 53° S 04:39:47 10° ESE daylight
24 Apr - 06:35:35 10° W 06:49:36 36° SSW 06:57:57 10° SSE daylight
24 Apr - 23:42:15 10° SSW 00:00:55 32° SE 00:16:54 10° E visible
25 Apr - 02:03:18 10° SW 02:24:52 51° SSE 02:39:40 10° E visible
25 Apr - 04:29:00 10° WSW 04:48:22 52° S 04:59:44 10° ESE daylight
25 Apr - 06:56:30 10° W 07:09:19 31° SW 07:17:16 10° SSE daylight
25 Apr - 21:47:32 10° SSE 21:58:20 16° SE 22:08:58 10° ESE visible
26 Apr - 00:01:02 10° SSW 00:20:59 38° SSE 00:37:44 10° E visible
26 Apr - 02:23:22 10° WSW 02:45:12 54° S 02:59:53 10° E visible
26 Apr - 04:49:38 10° W 05:08:30 50° SSW 05:19:35 10° SE daylight
26 Apr - 07:17:38 10° W 07:28:53 25° SW 07:36:17 10° S daylight
26 Apr - 22:03:38 10° S 22:17:59 21° SE 22:32:06 10° E visible
27 Apr - 00:20:14 10° SW 00:41:07 44° SSE 00:58:20 10° E visible
27 Apr - 02:43:37 10° WSW 03:05:32 56° S 03:20:01 10° ESE visible
27 Apr - 05:10:20 10° W 05:28:31 46° SSW 05:39:18 10° SE daylight
27 Apr - 07:39:09 10° W 07:48:17 19° SW 07:54:49 10° S daylight
27 Apr - 22:21:08 10° S 22:37:42 27° SE 22:53:58 10° E visible
28 Apr - 00:39:45 10° SW 01:01:21 49° SSE 01:18:47 10° E visible
28 Apr - 03:04:01 10° WSW 03:25:51 57° S 03:40:04 10° ESE daylight
28 Apr - 05:31:07 10° W 05:48:24 41° SSW 05:58:52 10° SE daylight
28 Apr - 08:01:32 10° W 08:07:35 14° SW 08:12:25 10° SSW daylight
28 Apr - 22:39:24 10° SSW 22:57:31 33° SE 23:15:13 10° E visible
29 Apr - 00:59:33 10° SW 01:21:38 53° SSE 01:39:07 10° E visible
29 Apr - 03:24:31 10° WSW 03:46:08 56° S 04:00:03 10° ESE daylight
29 Apr - 05:52:01 10° W 06:08:09 36° SW 06:18:13 10° SSE daylight
29 Apr - 20:45:32 10° SSE 20:55:23 15° SE 21:05:49 10° E visible
29 Apr - 22:58:11 10° SSW 23:17:26 39° SSE 23:36:07 10° E visible
30 Apr - 01:19:33 10° WSW 01:41:59 56° S 01:59:22 10° E visible
30 Apr - 03:45:06 10° W 04:06:19 53° SSW 04:19:55 10° SE daylight
30 Apr - 06:13:04 10° W 06:27:44 30° SW 06:37:17 10° SSE daylight
30 Apr - 21:01:37 10° S 21:14:50 21° SE 21:29:09 10° E visible
30 Apr - 23:17:22 10° SW 23:37:28 45° SSE 23:56:47 10° E visible
01 May - 01:39:43 10° WSW 02:02:20 58° S 02:19:33 10° ESE visible
01 May - 04:05:45 10° W 04:26:24 50° SSW 04:39:40 10° SE daylight
01 May - 06:34:27 10° W 06:47:10 24° SW 06:55:57 10° S daylight
01 May - 21:19:08 10° S 21:34:21 27° SE 21:51:09 10° E visible
